RH
2 2 2 2 2 2 2 2 3 3 3 3 3 3 3 3 3 4 4 4 4 4 5 5 6 7 8 8 9 10 10 10 11 11 11 11 10 10 10 9 9 9 9 9 9 9 10 10 10 10 11 11 11 12 12 13 14 14 15 15 16 16 17 17 18 18 19 19 20 21 21 22 23 24 25 25 26 26 27 28 28 29 30 30 30 30 29 29 28 28 28 28 28 28 28 28 28 28 28 29 30 31 32
2 2 2 2 2 2 2 2 3 3 3 3 3 3 3 3 3 3 4 4 4 4 4 4 5 5 6 7 8 9 9 10 10 10 11 11 11 11 11 10 10 10 10 10 10 10 10 11 11 11 11 12 12 12 13 13 14 14 15 15 16 16 17 17 18 18 19 19 20 21 22 23 24 25 26 26 27 27 28 29 29 30 31 31 31 31 30 30 29 29 29 29 29 29 28 29 29 29 29 30 31 32 33
2 2 2 2 2 2 2 2 3 3 3 3 3 3 3 3 3 3 4 4 4 4 4 4 4 5 5 6 7 8 8 9 10 10 10 10 11 11 11 11 11 11 10 10 11 11 11 11 12 12 12 13 13 13 14 14 14 15 16 16 17 17 18 18 18 19 19 20 21 22 23 24 25 26 26 27 28 28 29 29 30 31 32 32 32 32 31 30 30 30 30 30 30 30 29 30 30 30 30 31 32 34 34
2 2 2 2 2 2 2 3 3 3 3 3 3 3 3 3 3 3 3 4 4 4 4 4 5 5 5 6 6 7 8 8 9 9 10 10 10 10 11 11 11 11 11 11 11 11 11 12 12 12 13 13 14 14 15 15 16 16 17 17 18 18 19 19 19 20 20 21 22 22 23 24 25 26 27 28 29 29 30 30 31 31 32 33 33 33 32 31 31 31 31 31 31 31 31 31 31 31 32 33 34 35 35
2 2 2 2 2 2 2 3 3 3 3 3 3 3 3 3 3 3 3 4 4 4 4 4 5 5 5 5 6 6 7 8 8 9 10 10 10 11 11 11 12 12 12 12 12 12 12 12 13 13 14 14 15 15 16 16 16 17 18 18 19 19 20 20 21 21 21 22 23 24 24 25 26 27 28 28 29 30 30 31 31 32 33 33 33 33 33 32 32 32 32 33 32 32 32 32 33 33 34 35 36 36 35
2 2 2 2 2 2 2 2 3 3 3 3 3 3 3 3 3 3 3 3 4 4 4 4 5 5 5 5 6 6 6 7 8 9 9 10 11 11 11 12 12 13 13 13 13 13 13 13 13 14 14 15 15 16 16 17 17 18 18 19 19 20 20 21 21 22 22 23 24 25 26 26 27 27 28 29 30 30 31 31 32 33 33 34 34 34 34 33 33 33 33 34 34 33 33 34 34 35 36 38 38 37 34
2 2 2 2 2 2 2 3 3 3 3 3 3 3 3 3 3 3 3 3 3 4 4 4 5 5 5 5 6 6 6 7 7 8 9 10 10 11 12 12 13 14 14 14 14 14 14 14 14 15 15 16 16 17 17 17 18 18 19 19 20 20 21 22 22 23 23 24 25 26 26 27 28 28 29 30 30 31 31 32 33 33 34 34 35 35 35 34 34 34 34 35 35 34 34 35 35 37 39 40 39 36 32
2 2 2 2 2 2 3 3 3 3 3 3 3 3 3 3 3 3 3 3 3 3 4 4 4 5 5 5 5 6 6 6 6 7 8 9 9 10 11 12 13 14 14 15 15 15 15 15 15 16 16 16 17 17 18 18 18 19 20 20 21 21 22 23 23 24 24 25 26 27 28 28 29 29 30 31 31 31 32 33 33 34 35 35 35 35 35 35 35 35 35 35 35 35 35 36 37 38 40 40 37 34 29
2 2 2 2 3 3 3 3 3 3 3 3 3 3 3 3 3 3 3 3 3 3 3 4 4 4 5 5 5 6 6 6 6 6 7 7 8 9 10 11 12 13 14 14 15 15 15 15 15 15 16 16 17 17 18 18 19 19 20 20 21 22 22 23 24 24 25 26 27 28 29 30 30 31 31 32 32 33 33 34 34 35 35 36 36 36 36 36 35 35 35 35 35 36 37 38 39 40 40 37 33 29 26
3 3 3 3 3 3 3 3 3 3 3 3 3 3 3 3 3 3 3 3 3 3 3 3 4 4 5 5 5 5 6 6 6 6 6 7 7 8 8 9 10 11 12 13 13 14 14 14 15 15 15 15 16 16 17 18 18 19 20 20 21 22 22 23 23 24 25 26 27 29 30 30 31 32 33 33 33 33 34 34 35 35 35 36 36 36 36 36 36 35 35 36 37 38 39 40 41 40 37 32 28 25 23
3 3 3 3 3 3 3 3 3 3 3 3 3 3 3 3 3 3 3 3 3 3 3 3 4 4 4 5 5 5 6 6 6 6 6 6 7 7 7 8 8 9 10 11 12 12 13 13 14 14 14 14 15 15 16 16 17 18 19 20 21 22 22 23 24 24 25 26 27 28 29 30 31 32 33 33 34 34 34 35 35 35 36 36 36 36 36 36 36 36 37 38 39 40 41 41 39 36 31 27 24 22 21
3 3 3 3 3 3 3 3 3 3 3 3 3 3 4 4 4 4 4 3 3 3 3 3 3 4 4 4 5 5 6 6 6 6 6 6 7 7 7 7 7 8 9 9 10 11 11 12 12 13 13 14 14 14 15 15 16 17 18 19 20 21 22 23 24 24 25 26 27 28 29 30 31 32 33 34 34 34 34 35 35 35 36 36 36 37 37 37 38 38 39 40 41 41 40 37 34 29 25 23 21 21 21
3 3 3 3 3 3 3 3 3 3 3 3 3 4 4 4 4 4 4 4 4 3 3 3 3 4 4 4 5 5 5 6 6 6 7 7 7 6 6 6 7 7 8 8 9 10 10 11 11 11 12 13 13 14 14 15 15 16 17 17 18 19 20 21 22 23 24 25 26 27 29 30 31 32 33 34 34 34 35 35 35 36 36 37 37 38 38 39 40 41 41 40 39 37 34 30 27 24 21 21 21 21 21
3 3 3 3 3 3 4 4 4 4 3 4 4 4 4 4 4 4 4 4 4 4 4 4 4 4 4 4 5 5 5 6 6 6 7 7 7 6 6 6 6 7 7 8 8 9 10 10 10 10 11 12 12 13 14 15 15 16 16 17 17 18 19 19 20 21 22 23 24 26 27 28 29 31 32 33 33 34 34 35 35 36 37 37 38 39 40 40 39 39 37 35 32 30 27 24 22 21 20 20 21 21 22
3 3 3 3 3 3 4 4 4 4 4 4 4 4 4 4 4 4 4 4 4 4 4 4 4 4 4 4 4 5 5 5 6 6 7 7 7 7 6 6 6 6 7 7 8 9 9 10 10 10 10 11 11 12 13 14 15 15 16 16 17 17 18 18 19 20 20 21 22 24 25 26 27 29 30 31 32 33 33 34 35 35 36 36 37 37 36 35 34 32 30 27 25 23 22 21 21 21 21 21 21 22 22
4 4 3 2 2 3 4 4 4 4 4 4 4 4 4 4 4 5 5 5 5 5 5 4 4 4 4 4 4 4 5 5 6 6 7 7 7 7 7 6 6 6 7 7 8 9 9 10 10 10 11 11 11 12 13 14 14 15 16 16 17 17 18 18 19 19 20 21 22 23 24 25 26 27 28 29 30 31 32 32 33 33 33 33 32 31 29 28 26 25 24 23 22 21 21 21 22 22 22 22 22 22 21
4 4 3 2 2 2 3 4 4 4 4 4 4 4 4 4 4 5 5 5 5 5 5 5 5 4 4 4 4 4 4 5 5 6 6 7 7 7 7 7 7 7 7 7 8 8 9 10 10 11 11 11 12 12 13 14 14 15 16 16 17 18 18 19 19 20 20 21 22 23 23 24 25 26 26 27 28 29 29 29 29 29 28 27 26 25 24 23 23 22 22 22 22 22 23 23 23 23 22 22 22 21 21
4 3 3 3 2 3 3 4 4 4 4 4 4 4 4 4 4 4 5 5 5 5 5 5 5 5 5 4 4 4 4 5 5 5 6 6 7 7 7 7 7 7 7 7 8 8 9 10 10 11 11 11 12 12 13 14 14 15 16 16 17 18 18 19 20 20 21 21 22 22 23 23 24 24 25 25 25 26 26 25 25 24 24 24 23 23 23 23 23 23 23 24 24 24 24 24 23 23 22 21 21 20 20
4 4 4 4 4 3 3 4 4 4 4 4 4 4 4 4 4 4 4 5 5 5 5 5 5 5 5 5 5 4 4 4 5 5 6 6 7 7 7 8 8 8 8 8 8 8 9 9 10 10 11 11 11 12 12 13 14 14 15 16 16 17 18 19 20 20 21 21 21 22 22 23 23 23 23 23 24 24 24 24 24 24 24 24 24 24 24 24 24 25 25 25 24 24 24 23 23 22 21 20 20 19 19
4 6 7 7 7 6 4 4 4 4 4 4 4 4 4 4 4 4 4 4 4 5 5 5 5 5 5 5 5 5 5 5 5 5 5 6 6 7 7 8 8 8 8 8 9 9 9 9 10 10 10 11 11 11 12 12 13 14 14 15 16 17 18 18 19 20 20 21 21 22 22 22 23 23 23 24 24 24 24 24 25 25 25 25 25 25 25 25 25 24 24 24 23 23 22 22 21 21 20 20 19 19 19
5 7 9 10 11 10 8 5 4 3 4 4 4 4 4 4 4 4 4 4 4 4 5 5 5 5 5 5 5 5 5 5 5 5 5 6 6 7 7 8 8 8 9 9 9 9 9 9 9 10 10 10 10 10 11 11 12 13 14 14 15 16 17 18 18 19 19 20 21 21 22 22 23 23 24 24 24 25 25 25 25 25 25 25 24 24 24 24 23 23 22 22 22 21 21 21 21 20 20 20 20 19 19
5 6 9 11 13 13 11 8 5 3 3 4 4 4 4 4 4 4 4 4 4 4 4 4 5 5 5 5 5 6 6 6 6 6 5 6 6 6 7 8 8 8 9 8 8 8 8 8 9 9 9 10 10 10 10 11 12 12 13 14 15 15 16 17 17 18 19 19 20 21 21 22 22 23 23 24 24 24 24 24 24 24 23 23 23 23 22 22 22 21 21 21 21 21 21 21 21 21 21 21 20 20 20
4 5 7 10 13 14 14 11 8 5 3 3 4 4 4 4 4 4 4 4 4 4 4 4 4 4 5 5 5 5 5 6 6 6 6 6 6 6 7 7 8 8 8 8 8 8 8 8 8 8 9 9 9 10 10 10 11 12 13 14 15 15 16 16 17 17 18 19 19 20 21 21 21 22 22 23 23 23 23 22 22 22 22 22 21 21 21 21 21 21 21 21 21 21 22 22 22 22 22 22 21 21 21
4 4 5 8 10 12 13 12 9 7 5 4 4 4 4 4 4 4 4 4 4 4 4 4 4 4 4 4 5 5 5 5 6 6 6 6 7 7 7 7 8 8 8 8 8 8 8 8 8 8 8 9 9 10 10 11 11 12 13 14 15 15 16 16 17 17 18 18 19 19 20 20 20 20 21 21 21 21 21 21 21 21 21 21 21 21 21 21 21 22 22 22 22 23 23 23 23 23 23 23 23 23 23
4 4 4 5 6 8 9 9 9 8 8 6 5 4 4 4 4 4 4 4 3 3 4 4 4 4 4 4 4 4 5 5 5 6 6 6 7 7 7 7 8 8 8 8 8 8 8 8 8 8 9 9 10 10 10 11 12 12 13 14 15 15 16 16 17 17 18 18 18 19 19 19 19 19 20 20 20 20 20 21 21 21 21 21 21 21 22 22 22 22 23 23 24 24 24 24 25 25 24 24 24 24 24
4 4 4 4 4 4 4 4 5 6 7 7 6 5 4 3 3 4 4 4 3 3 3 3 4 4 4 4 4 4 5 5 5 6 6 6 6 7 7 7 7 8 8 8 8 8 8 8 8 8 9 10 10 10 11 11 12 13 14 15 15 16 16 17 17 18 18 18 19 19 19 20 20 20 20 20 21 21 21 21 21 21 21 21 21 21 22 22 22 23 23 24 24 25 25 26 26 26 26 26 26 26 25
4 4 4 4 4 4 3 3 3 3 5 5 5 4 3 3 3 4 4 4 4 3 3 3 3 4 4 4 4 4 5 5 5 6 6 6 6 6 7 7 7 7 8 8 8 8 8 8 8 9 9 10 10 11 11 12 13 14 15 15 16 16 17 17 18 18 18 19 19 20 20 20 21 21 21 21 21 21 21 21 20 20 20 20 20 21 21 21 22 22 23 24 24 25 26 26 26 27 27 27 27 27 26
4 4 4 4 4 4 4 3 3 3 3 3 3 3 3 3 3 3 4 4 4 3 3 3 3 4 4 4 4 4 4 5 5 5 6 6 6 6 6 7 7 7 7 8 8 8 8 8 9 9 10 10 11 11 12 13 13 14 15 15 16 16 16 17 17 18 18 18 19 19 19 20 20 20 19 19 19 19 19 19 19 19 19 19 19 20 20 21 21 22 22 22 23 24 24 25 26 26 26 27 27 27 27
4 4 4 4 4 4 4 3 3 3 3 3 3 2 2 2 3 3 4 4 4 3 3 3 3 3 4 4 4 4 4 4 5 5 5 5 6 6 6 6 7 7 7 7 8 8 8 8 8 9 9 10 10 11 12 12 13 14 14 15 15 15 16 16 16 16 17 17 17 18 18 18 18 18 18 17 17 17 17 17 18 18 18 18 18 19 19 19 19 20 20 20 20 21 21 22 23 23 24 25 26 26 26
4 4 4 4 4 4 4 4 3 3 3 3 3 2 2 3 3 3 4 4 4 3 3 3 3 3 3 4 4 4 4 4 4 5 5 5 5 5 5 6 6 7 7 7 7 7 7 8 8 8 8 9 10 10 11 11 12 12 13 13 13 13 14 14 14 14 14 15 15 15 15 15 15 15 16 16 16 16 16 16 16 17 17 17 17 17 17 17 17 17 17 17 17 18 18 18 19 20 21 22 23 24 25
5 5 5 5 5 5 5 5 4 4 4 3 3 3 3 3 3 3 4 4 4 3 3 3 3 3 3 3 3 4 4 4 4 4 4 4 5 5 5 5 6 6 6 7 7 7 7 7 7 7 8 8 9 9 9 10 10 10 11 11 11 11 11 12 12 12 12 12 13 13 13 13 14 14 14 14 15 15 15 15 15 15 15 16 16 16 16 16 15 15 15 15 15 15 16 17 17 18 19 20 21 22 23
5 5 5 5 5 5 5 5 5 4 4 3 3 3 3 3 3 4 4 4 4 4 3 3 3 3 3 3 3 3 4 4 4 4 4 4 4 4 4 5 5 5 6 6 6 6 6 6 7 7 7 7 8 8 8 8 9 9 9 10 10 10 10 10 10 10 10 11 11 11 12 12 12 13 13 13 13 14 14 14 14 14 14 14 14 14 14 14 14 14 14 14 14 15 16 16 17 18 19 20 21 22 23
5 5 5 5 5 5 6 6 5 5 4 4 3 3 3 3 4 4 4 4 4 4 3 3 3 3 3 3 3 3 3 3 4 4 4 4 4 4 4 4 5 5 5 5 6 6 6 6 6 6 6 6 7 7 7 7 8 8 8 8 9 9 9 9 9 9 9 10 10 10 11 11 11 12 12 12 12 12 12 12 13 13 13 13 13 13 13 13 13 14 14 15 15 16 16 17 18 19 20 21 21 22 23
5 5 5 5 6 6 6 6 6 5 5 4 4 3 3 4 4 4 4 4 4 4 4 3 3 3 3 3 3 3 3 3 3 3 4 4 4 4 4 4 4 4 5 5 5 5 5 5 6 6 6 6 6 6 7 7 7 7 7 7 7 8 8 8 8 8 8 9 9 9 10 10 10 10 10 11 11 11 11 11 11 12 12 12 12 13 13 13 14 15 15 16 16 17 17 18 19 20 21 22 23 23 24
5 5 5 6 6 6 6 6 6 6 5 5 4 4 4 4 4 4 4 4 4 4 4 3 3 3 3 3 3 3 3 3 3 3 4 4 4 4 4 4 4 4 4 4 4 5 5 5 5 5 6 6 6 6 6 6 6 6 6 6 7 7 7 7 7 7 7 8 8 8 8 9 9 9 9 10 10 10 10 10 10 11 11 11 12 13 13 14 15 16 16 17 17 18 18 19 20 21 22 23 24 24 25
6 6 6 6 6 6 7 7 7 6 6 5 5 4 4 4 4 4 4 4 4 4 3 3 3 3 3 3 3 3 4 4 4 4 4 4 4 4 4 4 4 4 4 4 4 4 5 5 5 5 5 5 6 6 6 6 6 6 6 6 6 6 6 6 6 6 6 6 7 7 7 7 8 8 8 8 9 9 9 10 10 10 11 11 12 13 14 15 16 17 18 18 18 18 18 19 20 21 22 23 24 25 26
6 6 6 6 6 7 7 7 7 6 6 5 5 5 4 4 4 4 4 4 4 4 4 4 3 3 3 3 3 3 4 4 4 4 4 4 4 4 4 4 4 4 4 4 4 4 4 5 5 5 5 5 5 5 5 5 5 5 5 5 5 5 5 5 5 5 5 6 6 6 6 6 7 7 7 8 8 8 9 9 10 10 11 11 13 14 15 16 18 18 18 18 18 19 19 19 20 21 22 23 24 25 26
7 7 7 6 7 7 7 7 7 7 6 6 5 5 4 4 4 4 4 4 4 4 4 4 4 3 3 3 3 3 4 4 4 4 4 4 4 4 4 4 4 4 4 4 4 4 4 4 5 5 5 5 5 5 5 5 5 5 5 5 5 5 5 5 5 5 5 5 5 5 6 6 6 6 7 7 7 8 8 9 9 10 11 12 13 14 16 17 18 19 19 19 19 19 19 19 20 21 21 22 23 24 26
8 7 7 7 7 7 7 7 7 7 6 6 5 5 5 4 4 4 5 4 4 4 4 4 4 4 3 3 3 4 4 4 4 4 4 4 4 4 4 4 4 4 4 4 4 4 4 4 5 5 5 5 5 5 5 5 5 5 5 5 5 5 5 5 5 5 5 5 5 5 5 6 6 6 6 7 7 8 8 9 10 10 11 12 13 14 16 17 19 19 20 20 20 19 19 19 20 20 21 22 23 24 24
8 8 8 7 7 7 7 7 7 6 6 5 5 5 5 5 5 4 4 4 4 4 4 4 4 4 3 3 3 4 4 4 4 4 4 4 4 4 4 4 4 4 4 4 4 4 4 5 5 5 5 5 5 5 5 5 5 5 5 5 5 5 5 5 5 5 5 5 5 5 5 6 6 6 6 7 7 8 8 9 10 10 11 12 13 14 16 17 19 20 21 21 20 20 20 20 20 20 21 22 23 23 23
8 8 8 8 7 7 7 7 7 6 6 5 5 5 5 5 5 5 5 4 4 4 4 5 4 4 4 4 4 4 4 4 4 4 4 4 4 4 4 4 4 4 4 5 5 5 5 5 5 5 5 6 6 6 6 6 6 6 6 6 5 5 5 5 5 5 5 5 5 6 6 6 6 6 6 7 7 8 8 9 10 11 11 12 13 14 15 17 18 20 21 21 21 21 21 20 20 21 21 22 23 23 23
9 8 8 8 8 7 7 7 7 6 6 6 6 6 6 6 5 5 5 5 4 4 5 5 5 5 4 4 4 4 4 4 4 4 4 4 4 5 5 5 5 5 5 5 5 5 5 5 6 6 6 6 7 7 7 7 7 7 7 7 6 6 6 6 6 6 6 6 6 6 6 6 6 6 7 7 7 8 8 9 10 11 12 12 13 14 15 17 18 19 21 22 22 22 22 21 21 21 21 22 22 23 23
9 9 8 8 8 7 7 7 7 7 6 6 7 7 6 6 6 5 5 5 5 5 5 5 5 5 5 4 4 4 4 4 4 4 4 5 5 5 5 5 5 5 5 5 5 5 6 6 6 6 7 7 7 8 8 8 8 8 8 8 8 7 7 7 7 7 6 6 6 6 6 7 7 7 7 7 8 8 9 9 10 11 12 13 14 15 15 16 18 19 20 21 22 23 23 22 22 21 21 22 22 23 23
9 9 9 9 8 8 8 7 7 7 7 7 7 7 7 6 6 6 5 5 5 5 5 5 5 5 5 5 4 4 4 4 4 4 5 5 5 5 5 5 5 5 5 6 6 6 6 6 7 7 7 7 8 8 9 9 9 9 9 9 9 9 9 8 8 8 7 7 7 7 7 7 7 7 7 8 8 8 9 10 10 12 13 14 15 15 16 17 18 19 20 21 22 23 23 23 23 22 22 22 22 22 22
10 9 9 9 9 9 8 8 8 7 7 7 8 8 7 7 7 6 6 6 5 5 5 5 5 5 5 5 5 5 5 5 5 5 5 5 5 5 6 6 6 6 6 6 6 6 6 7 7 7 7 8 8 9 9 9 10 10 10 10 10 10 10 10 10 9 9 9 9 8 8 8 8 8 8 9 9 10 10 11 12 13 14 15 16 17 17 18 18 19 20 21 22 23 24 24 24 23 23 22 22 22 22
10 10 10 9 9 9 9 9 8 8 8 8 8 8 8 7 7 7 6 6 6 6 6 6 6 6 5 5 5 5 5 5 5 5 5 5 5 6 6 6 6 6 6 6 6 6 7 7 7 7 8 8 8 9 9 9 10 10 10 11 11 12 12 12 11 11 11 10 10 10 10 10 10 10 10 10 11 11 12 13 14 15 16 17 18 19 19 20 20 20 21 22 22 23 24 24 24 24 24 24 23 23 22
9 10 10 10 10 10 9 9 9 9 8 9 9 8 8 8 7 7 7 6 6 6 6 6 6 6 6 6 6 6 6 6 6 6 6 6 6 6 6 6 6 6 6 6 6 6 7 7 7 7 7 8 8 8 9 9 10 10 10 11 11 12 13 13 13 13 13 12 12 12 12 12 12 12 13 13 14 14 15 15 16 17 18 19 20 21 22 22 22 22 22 23 23 24 24 25 25 25 25 24 24 24 23
9 9 10 10 10 10 10 10 9 9 9 9 9 9 9 8 8 7 7 7 6 6 6 6 6 6 6 6 6 6 6 6 6 6 6 6 6 6 6 6 6 6 6 6 6 6 6 6 7 7 7 7 8 8 9 9 9 10 10 10 11 12 13 14 14 15 15 14 14 14 14 14 14 15 15 16 17 17 18 18 19 20 21 22 23 24 24 24 25 25 24 24 24 25 25 25 25 25 25 25 25 25 24
9 9 10 10 10 10 10 10 10 10 10 10 10 10 9 9 8 8 8 7 7 7 7 7 6 6 6 6 6 6 6 6 6 6 6 6 6 6 6 6 6 6 6 6 6 6 6 6 6 7 7 7 8 8 8 9 9 10 10 10 10 11 12 13 14 15 16 16 16 15 15 15 16 16 17 18 19 20 21 22 22 23 24 24 25 26 26 27 27 27 26 26 26 26 26 26 26 26 26 26 25 25 25
9 9 9 10 10 10 10 10 10 10 10 10 10 10 10 9 9 8 8 8 7 7 7 7 7 7 7 7 6 6 6 6 6 6 6 7 7 6 6 6 6 6 6 6 6 6 6 6 6 6 7 7 7 8 8 8 9 9 10 10 10 11 11 12 14 15 16 17 17 17 16 16 16 17 18 18 20 21 22 24 25 25 26 26 27 28 28 28 28 28 28 28 27 27 27 27 27 27 26 26 26 26 26
9 9 9 10 10 10 10 10 10 9 9 10 10 10 10 10 9 9 8 8 8 7 7 7 7 7 7 7 7 6 6 6 6 7 7 7 7 7 7 7 7 7 7 6 6 6 6 6 6 6 7 7 7 7 8 8 9 9 9 10 10 10 11 12 13 14 16 17 17 18 18 17 17 17 17 18 19 21 23 24 26 26 27 28 28 29 29 29 29 29 29 29 29 28 28 28 28 28 27 27 27 27 27
9 9 9 9 10 10 10 10 9 9 9 9 10 10 10 10 9 9 9 8 8 8 8 7 7 7 8 7 7 7 6 6 7 7 8 8 8 7 7 7 8 8 7 7 7 7 7 7 7 7 7 7 7 7 8 8 8 9 9 10 10 11 11 11 12 14 15 17 18 18 19 18 18 18 18 18 19 20 22 24 25 26 27 28 29 29 30 30 30 30 29 29 29 29 29 29 29 29 28 28 28 28 28
10 9 9 9 9 9 9 9 9 9 9 9 10 10 10 10 10 9 9 8 8 8 8 8 8 8 8 8 7 7 7 7 7 7 8 8 8 8 8 8 8 8 8 8 8 8 8 7 7 7 7 7 7 8 8 8 9 9 10 10 11 11 11 12 12 14 15 17 18 19 20 20 19 19 19 19 19 20 22 23 25 26 27 28 29 30 31 31 31 30 30 30 30 31 31 31 31 30 30 29 29 29 29
10 10 9 9 9 9 9 9 9 9 9 9 9 10 10 10 10 9 9 9 8 8 8 8 8 9 9 9 8 7 7 7 7 8 8 8 8 8 8 8 8 8 8 8 8 8 8 8 8 8 8 8 8 9 9 9 10 10 10 11 11 11 11 12 13 14 16 17 18 19 20 21 21 21 20 20 20 21 22 23 25 26 27 29 30 31 31 32 32 32 32 32 32 32 32 32 32 32 31 30 30 29 29
10 10 10 9 9 9 9 9 8 8 8 8 8 9 10 10 10 9 9 8 8 8 8 8 8 9 9 9 9 8 7 7 7 8 8 8 8 8 8 8 8 8 8 8 8 8 8 8 8 8 8 8 9 9 9 9 10 10 10 11 11 12 12 13 14 15 17 18 19 20 21 22 22 22 21 21 22 22 23 24 25 26 27 29 30 31 32 32 32 32 32 33 33 34 34 34 34 34 33 32 32 31 30
10 10 10 10 10 10 9 9 9 9 8 8 8 8 9 9 9 9 9 8 8 8 8 8 8 9 9 9 9 8 8 7 7 8 8 8 8 8 8 8 8 8 8 8 8 8 8 8 8 8 8 8 8 9 9 9 10 10 11 12 12 13 14 15 16 17 18 19 20 21 22 22 22 22 22 22 22 23 23 24 25 26 28 29 31 32 32 33 33 33 33 34 34 35 35 36 36 36 35 35 34 33 32
10 10 11 11 11 10 10 10 10 10 10 10 10 10 9 9 10 9 9 8 8 8 8 8 8 8 9 9 10 10 10 8 7 8 8 9 9 9 9 9 9 9 9 9 9 8 8 8 8 8 9 9 9 9 9 10 10 11 12 13 13 14 15 16 18 19 20 20 21 22 22 22 22 22 22 22 23 23 24 24 26 27 29 30 31 32 33 33 33 33 34 35 35 36 36 37 37 37 37 36 35 34 34
11 11 11 11 11 11 11 10 11 11 11 11 11 11 11 11 11 11 10 10 9 9 8 8 8 8 8 8 9 10 12 10 9 8 8 9 9 9 10 10 10 11 11 11 11 11 11 10 10 10 10 10 10 10 10 11 11 12 13 14 15 16 17 18 19 20 21 21 22 22 22 22 22 22 22 22 23 23 24 25 27 29 31 32 33 34 34 34 34 34 35 35 37 37 38 38 39 39 39 38 37 36 35
11 11 11 11 11 11 11 11 11 11 12 12 12 12 12 12 12 12 13 12 12 11 10 10 9 9 9 9 9 9 11 11 11 10 9 10 10 10 10 11 12 13 13 14 14 14 15 15 15 14 14 15 15 14 13 13 13 14 15 16 17 18 18 19 20 21 22 22 23 23 22 22 21 21 21 22 23 24 25 27 29 31 33 34 35 36 36 36 36 36 36 37 39 40 40 40 40 40 40 39 38 37 35
12 12 12 12 12 12 12 12 12 12 12 12 12 12 12 13 13 14 14 14 14 14 13 12 12 11 11 10 10 9 10 10 11 11 11 11 11 11 11 12 13 14 14 15 16 17 17 18 18 19 19 20 20 20 20 19 18 18 18 18 19 19 20 21 22 23 24 24 24 24 24 23 22 22 21 22 23 24 26 29 32 34 36 37 38 39 40 39 39 38 39 40 42 43 43 43 43 42 42 41 39 38 36
12 12 13 13 13 13 13 13 13 13 13 13 13 13 13 13 14 15 15 15 16 15 15 14 14 13 13 13 12 11 11 12 12 13 14 15 15 15 14 13 14 14 15 16 16 17 17 18 19 20 22 23 24 26 27 28 28 28 27 25 24 23 22 23 24 25 26 27 27 27 26 26 24 23 23 23 24 26 28 32 35 37 39 41 42 44 45 45 44 43 43 45 46 46 46 46 45 44 44 42 41 39 37
Wind_Speed
21 21 21 21 21 21 21 21 21 21 21 21 21 21 21 21 21 21 21 21 21 21 21 21 20 20 20 20 20 19 19 19 19 19 19 19 19 19 19 19 19 19 19 19 19 20 20 21 21 22 22 22 22 23 23 23 23 23 23 23 23 23 24 24 24 24 25 25 25 25 25 25 25 25 25 25 25 25 25 25 25 25 25 25 26 26 26 26 26 26 26 26 26 26 26 26 26 26 26 26 26 25 25
21 21 21 21 21 21 21 21 21 21 21 21 21 21 21 21 21 21 21 21 21 21 21 21 21 21 21 20 20 20 20 20 20 20 19 19 19 19 19 19 19 19 19 19 19 20 20 20 21 21 21 22 22 22 22 23 23 23 23 23 23 23 23 24 24 24 24 25 25 25 25 25 25 25 25 25 25 25 25 25 25 25 26 26 26 27 27 26 26 26 26 27 27 27 27 27 27 27 27 26 26 26 26
22 22 22 22 22 22 22 22 22 22 21 21 21 21 21 21 21 21 21 21 21 21 21 21 21 21 21 21 21 20 20 20 20 20 20 20 20 20 20 20 20 20 20 20 20 20 20 20 21 21 21 22 22 22 22 23 23 23 23 23 23 23 23 24 24 24 24 25 25 25 25 25 25 25 25 25 25 25 25 26 26 26 26 27 27 27 27 27 27 27 27 27 27 27 27 27 27 27 27 27 27 26 26
22 22 22 23 23 22 22 22 22 22 22 22 21 21 21 21 21 21 21 21 21 21 21 21 20 20 20 20 20 20 20 20 20 20 20 20 20 20 20 20 20 20 20 20 20 20 21 21 21 21 22 22 22 22 23 23 23 23 23 23 23 23 24 24 24 24 24 25 25 25 25 25 25 25 26 26 26 26 26 26 26 27 27 27 28 28 28 28 28 27 27 27 28 28 28 28 28 28 28 28 27 27 26
23 23 23 23 23 23 23 23 23 22 22 22 22 21 21 21 21 21 21 20 20 20 20 20 20 20 20 20 20 20 20 20 20 20 20 20 20 20 20 20 20 20 20 20 21 21 21 21 21 22 22 22 22 23 23 23 23 23 24 24 24 24 24 24 24 24 24 24 25 25 25 25 26 26 26 26 26 26 26 27 27 28 28 28 29 29 29 29 28 28 28 28 28 28 28 28 29 29 29 29 28 28 27
23 23 23 24 24 24 23 23 23 23 23 22 22 22 21 21 21 20 20 20 20 20 20 20 20 20 20 20 20 20 19 19 19 19 19 19 19 19 19 19 19 20 20 20 20 21 21 21 22 22 22 22 23 23 23 23 24 24 24 24 24 24 24 24 24 24 24 24 25 25 25 25 26 26 26 26 27 27 27 27 28 28 29 29 29 30 29 29 29 29 29 29 29 29 29 29 29 29 29 29 29 28 27
24 24 24 24 24 24 24 24 23 23 23 23 22 22 21 21 21 21 21 20 20 20 20 20 20 20 20 19 19 19 19 19 19 19 19 19 19 18 18 19 19 19 19 20 20 20 21 21 21 22 22 22 23 23 23 23 24 24 24 24 24 24 24 24 25 25 25 25 25 25 25 25 26 26 26 27 27 27 28 28 29 29 30 30 30 30 30 30 30 29 29 29 29 29 29 29 29 29 29 29 29 28 27
24 24 24 24 24 24 24 24 24 23 23 23 22 22 22 21 21 21 21 21 21 20 20 20 20 20 20 20 19 19 19 19 19 19 19 19 19 18 18 18 18 19 19 19 19 20 20 21 21 21 22 22 22 23 23 23 23 24 24 24 24 24 25 25 25 25 25 25 25 25 25 26 26 26 26 27 27 28 28 28 29 29 30 30 31 31 31 31 30 30 30 30 30 30 30 30 30 29 29 29 28 27 26
24 24 24 24 24 24 24 24 24 23 23 23 23 22 22 22 22 21 21 21 21 21 21 20 20 20 20 20 20 20 20 20 20 19 19 19 19 19 18 18 18 19 19 19 19 20 20 20 21 21 21 22 22 22 23 23 23 23 24 24 24 24 24 25 25 25 25 25 25 25 26 26 26 26 27 27 27 28 28 29 29 30 30 31 31 31 31 31 31 30 30 30 30 30 30 30 30 30 29 28 27 26 26
24 24 24 24 24 24 24 24 24 23 23 23 23 23 22 22 22 22 21 21 21 21 21 21 21 21 21 20 20 20 20 20 20 20 20 20 19 19 19 19 19 19 19 19 19 20 20 20 21 21 21 21 22 22 22 22 23 23 23 23 24 24 24 24 25 25 25 25 25 25 26 26 26 26 27 27 27 28 28 29 29 30 30 31 31 31 31 31 31 31 31 31 31 31 31 30 30 29 28 27 26 26 25
25 25 25 25 24 24 24 24 24 23 23 23 23 23 22 22 22 22 21 21 21 21 21 21 21 21 21 21 21 21 21 21 21 20 20 20 20 20 20 19 19 19 19 20 20 20 20 20 21 21 21 22 22 22 22 22 23 23 23 23 24 24 24 24 25 25 25 25 25 26 26 26 26 27 27 27 28 28 28 29 29 29 30 30 31 31 31 31 31 31 31 31 31 31 30 30 29 28 27 27 26 25 25
25 25 25 25 25 24 24 24 24 24 23 23 23 23 22 22 22 22 22 21 21 21 21 21 21 21 21 21 21 21 21 21 21 21 21 21 20 20 20 20 20 20 20 20 20 20 21 21 21 21 21 22 22 22 22 22 23 23 23 23 23 24 24 25 25 25 25 25 26 26 26 26 27 27 27 27 28 28 28 28 29 29 29 30 30 30 31 31 31 31 31 31 30 30 29 29 28 27 26 26 26 26 26
25 25 25 25 25 25 24 24 24 24 23 23 23 23 22 22 22 22 22 22 22 21 21 21 21 21 21 21 21 21 21 21 21 21 21 21 21 21 20 20 20 20 20 20 20 21 21 21 21 21 21 22 22 22 22 22 23 23 23 23 23 24 24 24 25 25 25 25 26 26 26 27 27 27 27 28 28 28 28 28 29 29 29 29 30 30 30 30 31 31 30 30 29 29 28 27 27 26 26 26 26 26 26
25 25 25 25 25 25 25 24 24 23 23 23 23 23 22 22 22 22 22 22 22 22 22 22 22 22 22 22 22 22 22 22 21 21 21 21 21 21 21 21 21 21 21 21 21 21 21 21 21 21 21 21 22 22 22 22 22 23 23 23 23 23 24 24 25 25 25 25 26 26 26 26 27 27 27 28 28 28 28 28 28 29 29 29 29 29 30 30 30 29 29 29 28 27 27 26 26 26 26 26 26 27 27
25 25 25 25 25 25 25 24 24 23 23 23 23 23 22 22 22 22 22 22 22 22 22 22 22 22 22 22 22 22 22 22 22 22 21 21 21 21 21 21 21 21 21 21 21 21 21 21 21 21 21 21 22 22 22 22 22 22 23 23 23 23 23 24 24 24 25 25 25 25 26 26 26 27 27 27 27 28 28 28 28 28 28 28 28 28 28 28 28 28 27 27 26 26 26 25 26 26 26 27 27 28 28
26 26 25 25 25 25 25 25 24 24 23 23 23 22 22 22 22 22 22 22 22 22 22 22 22 22 22 22 22 22 22 22 22 22 22 22 21 21 21 21 21 21 21 21 21 21 21 21 21 21 21 21 22 22 22 22 22 22 22 22 22 23 23 23 23 24 24 24 24 25 25 25 25 26 26 26 26 27 27 27 27 27 27 27 27 27 27 26 26 26 26 25 25 25 25 26 26 27 27 28 28 28 28
27 26 26 25 25 25 25 25 25 24 24 23 23 23 22 22 22 22 22 22 22 22 23 23 23 23 23 23 23 22 22 22 22 22 22 22 22 22 22 22 22 22 22 22 22 22 22 22 22 22 22 22 22 22 22 22 22 22 22 22 22 22 22 23 23 23 23 23 24 24 24 24 24 24 25 25 25 25 25 26 25 25 25 25 25 25 25 25 25 25 25 25 25 26 26 27 27 28 28 28 29 29 29
27 27 26 26 26 25 25 25 25 25 24 24 23 23 23 23 22 22 22 23 23 23 23 23 23 23 23 23 23 23 22 22 22 22 22 22 22 22 22 22 22 22 22 22 22 22 22 22 22 22 22 22 22 22 22 22 22 23 23 23 22 22 22 22 23 23 23 23 23 23 23 23 24 24 24 24 24 24 24 24 24 24 24 24 24 24 24 25 25 25 25 26 26 27 27 28 28 28 29 29 29 29 29
27 27 27 27 26 26 26 25 25 25 25 24 24 23 23 23 23 23 23 23 23 23 23 24 24 24 23 23 23 23 23 22 22 22 22 22 22 22 22 22 22 22 22 22 22 22 22 22 22 22 22 22 22 22 22 22 23 23 23 23 23 23 22 22 22 23 23 23 23 23 23 23 23 23 23 23 23 23 23 24 24 24 24 24 24 25 25 25 26 26 26 27 27 28 28 28 29 29 29 29 29 28 28
27 27 27 27 27 27 26 26 26 26 25 25 24 24 24 24 24 24 23 23 24 24 24 24 24 24 24 23 23 23 23 22 22 22 22 22 22 22 22 22 22 22 22 22 22 22 22 22 22 22 22 22 23 22 23 23 23 23 23 23 23 23 23 23 23 23 23 23 23 23 23 23 23 23 23 23 23 24 24 24 24 24 24 25 25 26 26 26 27 27 28 28 28 28 29 29 29 29 29 28 28 28 28
28 28 28 28 27 27 27 27 26 26 26 25 25 25 25 25 25 24 24 24 24 24 24 24 24 24 24 24 23 23 23 22 22 22 22 22 22 22 22 22 22 22 22 22 22 22 23 23 23 23 23 23 23 23 23 23 23 23 23 23 23 23 23 23 23 23 23 23 23 23 24 24 24 24 24 24 24 24 25 25 25 25 26 26 26 27 27 27 28 28 28 28 29 29 29 29 28 28 28 28 28 28 27
28 28 28 28 28 28 28 27 27 27 26 26 26 26 26 26 25 25 25 25 25 25 25 25 25 25 24 24 24 23 23 22 22 22 22 22 22 22 22 22 22 22 22 22 22 22 23 23 23 23 23 23 23 23 23 23 23 23 24 24 24 24 23 23 23 24 24 24 24 24 24 24 25 25 25 25 25 25 26 26 26 26 26 27 27 27 27 28 28 28 28 29 29 29 28 28 28 28 28 28 27 27 27
28 28 28 28 28 28 28 28 27 27 27 27 27 27 27 26 26 26 26 26 26 25 25 25 25 25 25 24 24 23 23 22 22 22 22 22 22 22 22 22 22 22 22 22 22 23 23 23 23 23 23 23 23 23 23 23 23 23 23 24 24 24 24 24 24 24 24 24 24 24 25 25 25 25 25 26 26 26 26 26 26 27 27 27 27 27 27 28 28 28 28 28 28 28 28 28 28 28 27 27 27 27 27
28 28 28 28 28 28 28 28 28 28 28 27 27 27 27 27 27 27 27 27 26 26 26 25 25 25 25 25 24 23 23 22 22 21 21 21 22 22 22 22 22 22 23 23 23 23 23 23 23 23 23 23 23 23 23 23 23 23 23 23 23 23 23 24 24 24 24 24 24 24 24 25 25 25 25 26 26 26 26 26 26 27 27 27 27 27 27 28 28 28 28 28 28 28 28 28 28 27 27 27 27 27 27
29 29 28 28 28 28 27 27 27 28 28 28 28 28 28 28 28 28 28 27 27 27 26 26 25 25 25 25 24 24 23 22 22 21 21 21 21 21 22 22 22 22 23 23 23 23 23 23 23 23 23 23 23 23 23 23 23 23 23 23 23 23 23 23 24 24 24 24 24 24 24 24 25 25 25 26 26 26 26 27 27 27 27 27 28 28 28 28 28 28 28 28 28 28 28 28 28 27 27 27 27 27 27
30 29 29 29 28 28 28 27 27 28 28 29 29 29 29 29 29 28 28 28 28 27 27 26 26 25 25 25 24 24 23 23 22 22 21 21 21 21 22 22 22 22 22 23 23 23 23 23 23 23 23 23 23 23 23 23 23 23 23 23 23 23 23 24 24 24 24 24 24 24 25 25 25 25 26 26 26 27 27 27 28 28 28 28 28 28 28 28 28 28 28 28 28 28 28 28 28 28 28 28 27 27 27
30 30 30 30 29 29 28 28 28 28 29 29 29 30 30 30 29 29 29 28 28 28 28 27 26 26 25 25 24 24 23 23 22 22 22 21 21 21 21 21 22 22 22 22 23 23 23 23 23 23 23 23 23 23 23 23 23 23 23 24 24 24 24 24 24 24 25 25 25 25 25 26 26 26 27 27 27 28 28 28 28 28 28 28 29 28 29 29 29 29 29 29 29 29 29 29 29 29 29 28 28 28 28
31 31 31 30 30 30 29 29 29 29 29 30 30 30 30 30 30 30 29 29 29 28 28 28 27 26 26 25 25 24 24 23 23 22 22 22 21 21 21 21 21 21 22 22 22 23 23 23 23 23 23 23 23 23 23 23 23 24 24 24 24 24 25 25 25 25 25 26 26 26 27 27 27 27 28 28 28 28 28 29 29 29 28 28 28 28 29 29 29 29 29 29 30 30 30 30 30 30 30 29 29 29 29
31 31 31 31 31 31 30 29 29 29 30 30 31 31 31 31 31 30 30 30 29 29 29 28 28 27 26 26 25 25 24 24 23 23 22 22 22 21 21 21 21 21 22 22 22 22 23 23 23 23 23 23 23 23 24 24 24 24 24 25 25 25 25 26 26 26 26 27 27 27 27 28 28 28 28 28 28 28 28 28 28 28 28 28 28 28 28 29 29 29 29 30 30 30 30 30 30 30 30 30 30 29 29
31 31 32 32 32 32 31 31 30 30 30 31 32 32 31 31 31 31 31 30 30 29 29 29 28 28 27 27 26 25 25 24 24 24 23 22 22 22 22 22 22 22 22 22 22 22 23 23 23 23 23 23 23 24 24 24 24 25 25 25 25 26 26 26 26 27 27 27 27 27 28 28 28 28 28 28 28 28 28 27 27 27 27 28 28 28 28 28 29 29 29 30 30 30 30 30 30 30 30 30 30 30 29
30 31 32 33 33 33 33 32 31 31 31 32 32 33 32 32 32 31 31 31 30 30 29 29 29 28 28 27 27 26 26 25 25 24 23 23 22 22 22 22 22 22 22 22 22 23 23 23 23 23 23 23 24 24 24 24 25 25 25 25 26 26 26 26 27 27 27 27 27 27 27 27 27 27 27 27 27 27 27 27 27 27 27 27 27 28 28 28 29 29 29 29 29 30 30 30 30 30 30 29 29 29 29
30 31 32 33 33 33 33 33 33 32 32 32 33 33 33 33 33 32 32 31 31 30 30 29 29 29 28 28 28 27 27 26 25 25 24 23 23 22 22 22 22 22 22 23 23 23 23 23 23 24 24 24 24 24 24 24 24 25 25 25 25 26 26 26 26 26 26 26 26 26 26 26 26 26 26 26 26 26 26 26 26 26 26 27 27 27 27 28 28 28 28 29 29 29 29 29 29 29 29 28 28 28 28
31 31 32 33 33 33 33 34 33 33 33 33 33 34 34 34 34 33 33 32 31 30 30 29 29 29 29 29 28 28 27 27 26 25 25 24 23 23 22 22 23 23 23 23 23 23 23 23 23 24 24 24 24 24 24 24 24 24 25 25 25 25 25 26 26 26 26 26 26 26 26 26 25 25 25 25 25 25 25 25 25 25 26 26 26 27 27 27 27 28 28 28 28 28 28 28 28 28 28 28 27 27 27
31 32 32 33 33 33 34 34 34 34 34 34 34 34 35 35 35 34 34 33 32 31 30 30 29 29 29 29 29 29 28 28 27 26 25 25 24 23 23 23 23 23 23 23 23 23 23 23 23 24 24 24 24 24 24 24 24 24 24 24 25 25 25 25 25 25 25 25 25 25 25 25 25 25 25 25 25 25 25 25 25 25 25 25 26 26 26 27 27 27 27 28 28 28 28 28 27 27 27 27 27 27 27
32 32 33 33 33 33 34 34 34 34 34 34 34 35 35 36 35 35 35 34 33 32 31 30 29 29 30 30 30 30 29 29 28 27 26 26 25 24 24 23 23 23 23 23 24 24 24 23 23 24 24 24 24 23 23 23 24 24 24 24 24 24 25 25 25 25 25 25 25 25 25 24 24 24 24 24 24 24 24 24 24 25 25 25 25 26 26 26 26 27 27 27 27 28 27 27 27 27 27 27 27 26 26
33 33 33 33 33 34 34 34 35 35 35 35 35 35 36 36 36 36 36 35 34 33 31 30 30 30 30 30 30 30 30 30 29 28 27 27 26 25 24 24 24 24 24 24 24 24 24 23 23 23 23 23 23 23 23 23 23 24 24 24 24 24 24 24 24 25 25 25 25 24 24 24 24 24 24 24 24 24 24 24 24 24 25 25 25 25 26 26 26 26 27 27 27 27 27 27 27 27 27 27 27 26 26
35 34 34 34 34 34 34 35 35 35 35 35 35 36 36 37 37 37 37 36 35 34 33 31 31 30 30 30 31 31 31 31 31 30 29 28 27 26 25 25 24 24 24 24 24 24 24 23 23 23 23 23 23 24 23 23 23 23 24 24 24 24 24 24 24 24 24 24 24 24 24 24 24 24 24 24 24 24 24 24 24 24 25 25 25 25 26 26 26 26 26 27 27 27 27 27 27 27 27 27 27 27 27
36 36 35 35 35 35 35 35 35 36 36 36 36 36 37 37 37 37 37 37 36 35 34 33 32 31 31 31 31 31 32 32 32 31 30 29 28 27 26 25 25 24 24 24 24 24 24 24 23 23 23 24 24 24 24 24 24 24 24 24 24 24 24 24 24 24 24 24 24 24 24 24 24 24 24 24 24 24 24 24 25 25 25 25 25 25 26 26 26 26 26 26 27 27 27 27 27 27 27 27 27 27 27
37 37 36 36 36 36 36 36 36 36 37 37 37 37 37 37 37 37 37 37 37 36 35 35 34 33 32 32 32 32 32 33 33 32 32 31 30 29 27 26 26 25 25 25 25 25 24 24 24 24 24 24 24 24 24 24 24 24 24 24 24 24 24 24 24 24 24 24 24 24 24 24 24 24 24 24 24 24 25 25 25 25 25 26 26 26 26 26 26 26 26 26 26 27 27 27 27 27 27 27 27 27 28
39 38 38 37 37 37 37 37 37 37 37 37 37 37 37 37 38 37 37 38 37 37 36 36 36 35 34 33 33 33 33 33 33 33 33 32 31 30 29 28 27 26 26 26 26 25 25 25 24 24 24 24 24 24 24 24 24 25 25 25 25 25 25 25 25 25 25 25 25 25 25 25 25 25 25 25 25 25 26 26 26 26 26 26 26 26 26 26 26 27 26 26 27 27 27 27 27 27 27 27 28 28 28
40 39 39 38 38 38 38 38 38 38 38 38 38 37 38 38 38 38 38 38 38 38 37 37 37 37 36 35 34 34 34 34 34 34 34 33 33 32 30 29 28 28 27 27 27 26 26 26 25 25 25 25 25 25 25 25 25 25 25 25 26 26 26 26 26 26 26 26 26 26 26 26 25 26 26 26 26 26 26 27 27 27 27 27 27 27 27 27 27 27 27 27 27 27 27 27 27 27 27 28 28 28 28
41 40 40 40 39 39 39 39 39 39 39 38 38 38 38 38 38 38 38 38 38 38 38 38 38 38 38 37 36 35 35 35 35 35 35 34 34 33 32 31 30 29 29 28 28 27 27 27 26 26 26 26 26 26 26 26 26 26 26 26 26 27 27 26 27 26 26 27 27 27 27 27 27 27 27 27 27 27 27 28 28 28 28 28 28 28 28 28 28 28 28 28 27 27 27 27 27 28 28 28 28 28 29
41 41 41 41 40 40 40 40 40 40 39 39 39 39 39 39 39 39 39 39 39 39 39 39 39 40 40 39 38 37 36 36 36 36 35 35 35 34 33 33 32 31 30 30 29 28 28 28 28 27 27 27 27 27 27 27 27 27 27 27 28 28 28 28 28 27 27 27 27 28 28 28 28 28 28 28 28 28 28 29 29 29 29 29 29 29 29 29 29 28 28 28 28 28 28 28 28 28 28 28 28 29 29
42 42 42 42 42 41 41 41 41 41 40 40 39 39 39 39 39 39 39 39 39 40 40 40 40 41 41 40 39 38 38 37 37 36 36 36 36 35 35 34 34 33 33 32 31 30 29 29 29 29 29 28 28 28 28 28 28 28 28 28 29 29 29 29 29 28 28 28 28 28 29 29 29 29 29 29 29 29 30 30 30 30 30 30 30 30 30 30 29 29 29 29 29 29 29 29 29 29 29 29 29 29 29
43 43 43 43 43 42 42 42 42 41 41 40 40 40 40 40 40 40 40 40 40 40 41 41 41 42 42 42 41 40 39 38 38 37 37 37 37 36 36 36 35 35 35 34 32 32 31 30 30 30 30 30 29 29 29 29 29 29 29 29 29 30 30 30 30 29 29 29 29 29 30 30 30 30 30 30 30 30 30 31 31 31 31 31 31 31 31 30 30 30 30 30 30 30 30 30 30 30 30 30 30 30 30
44 44 44 44 44 43 43 43 42 42 41 41 41 41 41 40 40 41 41 41 41 41 42 42 42 43 43 43 42 41 40 40 39 38 38 38 38 37 37 37 37 37 36 36 34 33 33 32 31 31 31 31 31 31 30 30 30 30 30 30 30 30 31 31 30 30 30 30 30 30 30 30 30 31 31 31 31 31 31 31 31 31 31 32 32 32 31 31 31 31 31 31 31 31 31 31 31 31 31 31 31 31 31
45 45 45 45 45 44 44 44 43 43 42 42 42 42 42 42 41 41 42 42 42 42 42 43 43 43 44 43 43 42 42 41 40 40 39 39 39 38 38 38 38 38 38 37 37 35 34 34 33 32 32 32 32 32 32 32 32 31 31 31 31 31 31 31 31 31 31 31 31 31 31 31 31 31 32 32 32 32 32 32 32 32 32 32 32 33 32 32 32 32 32 32 32 32 32 32 32 32 32 32 32 32 32
45 45 46 46 45 45 45 44 44 43 43 43 43 43 43 43 43 42 43 43 43 43 43 43 44 44 44 44 44 44 43 43 42 41 41 41 40 40 39 39 40 40 40 39 38 37 36 35 34 34 33 34 34 34 34 33 33 33 32 32 32 32 32 32 32 32 32 32 32 32 32 32 32 32 32 32 33 33 33 33 33 33 33 33 34 34 34 34 33 33 33 33 33 33 33 33 33 33 33 33 33 33 33
45 46 46 46 46 46 46 45 45 44 44 44 44 44 44 44 44 44 43 43 43 44 44 44 44 44 45 45 45 45 45 44 43 42 42 42 41 41 41 41 41 41 41 41 40 39 38 37 36 35 35 35 35 35 35 35 35 34 34 33 33 33 33 33 33 34 34 34 34 33 33 33 33 33 33 33 34 34 34 34 34 34 34 34 35 35 35 35 35 35 34 34 34 34 34 34 34 34 34 34 34 34 34
46 46 46 46 46 46 46 46 46 45 45 45 45 45 45 45 45 45 44 44 44 44 45 45 45 45 45 46 46 46 46 45 44 44 43 43 42 42 42 42 42 43 42 42 42 41 40 39 38 37 36 36 36 36 36 36 36 36 35 35 34 34 34 34 34 35 35 35 35 35 34 34 34 34 34 34 35 35 35 35 35 35 35 36 36 36 36 36 36 36 36 36 36 36 36 36 35 35 35 35 35 35 35
46 46 46 47 47 47 47 47 47 46 46 46 46 46 47 47 46 46 46 45 45 45 45 45 46 46 46 47 47 47 47 46 46 45 44 44 44 43 43 43 43 43 43 43 43 42 42 41 40 38 38 37 37 37 37 37 37 37 36 36 36 35 35 35 35 36 36 36 36 36 35 35 35 35 36 36 36 36 36 36 36 36 37 37 37 37 37 37 37 37 37 37 37 37 37 37 37 36 36 36 36 36 36
46 46 46 47 47 47 47 47 47 47 47 47 47 47 48 48 48 47 47 46 46 46 46 46 46 47 47 48 48 48 48 47 47 46 46 46 45 45 45 44 44 44 44 44 44 44 43 42 41 40 40 39 39 38 38 39 39 38 38 37 37 37 36 36 36 37 37 37 37 37 37 37 37 37 37 37 37 37 37 37 38 38 38 38 38 38 38 39 39 38 38 38 38 38 38 38 38 38 38 37 37 37 37
46 46 47 47 48 48 48 48 48 48 48 48 48 48 48 49 49 48 48 47 47 47 47 47 47 47 48 49 49 49 49 48 48 48 48 47 47 46 46 45 45 45 45 45 45 44 43 43 43 42 42 41 40 40 39 40 40 39 39 38 38 38 38 37 37 38 38 38 38 38 38 38 38 38 38 38 38 38 39 39 39 39 39 39 39 39 40 40 40 40 39 39 39 39 40 40 40 39 39 39 39 39 39
47 47 48 48 48 48 49 49 49 49 49 48 48 49 49 49 49 49 49 49 48 48 48 48 48 48 49 49 50 50 50 49 49 49 49 49 49 48 47 46 46 46 46 46 46 45 44 44 44 44 43 42 41 41 41 40 40 40 40 39 39 39 39 39 38 38 39 39 39 39 39 39 39 39 40 40 40 40 40 40 40 40 40 40 41 41 41 41 41 41 40 40 40 41 41 41 41 41 41 40 40 40 40
47 48 48 49 49 49 49 49 50 50 50 49 49 49 49 50 50 50 50 50 49 49 49 49 49 49 49 50 51 51 51 51 51 51 51 51 50 49 49 48 48 48 48 47 47 46 46 45 45 46 45 43 43 42 42 41 41 41 41 41 41 41 40 40 39 39 40 39 39 39 40 40 40 40 41 41 41 41 41 42 42 42 42 42 42 42 42 42 42 42 41 41 42 42 42 42 42 42 42 42 42 42 42
48 49 49 49 50 50 50 50 50 51 50 50 49 49 49 50 50 51 51 51 51 50 50 50 50 50 50 50 51 52 52 52 52 52 52 52 52 51 50 50 49 49 48 48 47 47 48 47 47 47 46 45 44 44 43 42 42 41 41 41 42 42 41 41 40 40 40 40 40 40 40 41 41 42 42 42 42 42 43 43 43 43 43 43 43 43 43 43 43 43 43 43 43 43 43 43 43 43 43 43 43 43 43
49 50 50 50 51 51 51 51 51 51 51 51 50 49 49 50 51 51 51 51 51 51 51 51 51 51 51 51 52 53 53 53 53 52 53 53 53 53 52 51 51 50 50 49 49 49 49 48 48 48 47 46 46 46 45 43 42 42 42 42 42 42 42 42 42 41 41 41 41 41 41 42 42 43 43 43 43 43 44 44 44 44 44 44 44 44 45 45 44 44 44 44 44 44 45 45 44 44 44 44 44 44 44
50 51 51 51 52 52 53 53 52 52 52 52 51 51 50 50 51 52 52 52 52 52 52 52 52 52 52 52 52 53 53 53 53 53 54 54 55 55 54 53 52 51 51 50 50 50 50 49 49 49 49 48 47 46 45 44 44 43 43 43 43 43 43 43 43 43 42 42 42 42 43 43 44 44 44 44 44 44 45 45 45 45 45 45 45 45 46 46 46 45 45 45 46 46 46 46 46 45 45 45 45 45 45
51 52 52 53 53 53 54 54 54 54 54 53 52 52 52 52 52 52 53 53 53 53 53 53 53 53 53 53 53 53 54 54 54 54 54 55 56 56 55 55 54 53 52 51 51 51 51 50 50 50 50 49 48 47 46 45 45 44 43 43 43 44 44 44 44 44 44 44 44 44 44 44 45 45 45 45 45 45 46 46 46 46 46 46 46 46 47 47 47 47 47 47 47 47 47 47 47 46 46 46 46 46 46
53 53 53 54 54 55 55 55 56 55 55 55 54 54 53 53 54 54 54 54 54 54 54 54 54 53 53 54 54 54 54 55 55 55 55 56 56 57 56 56 55 54 53 53 52 52 52 52 51 51 51 50 49 48 47 46 45 44 44 44 44 44 45 45 45 45 45 45 45 45 46 46 46 46 46 47 46 46 46 46 47 47 47 47 47 47 48 48 48 48 48 48 48 48 48 48 48 47 47 47 47 47 48
54 54 55 55 56 56 57 57 57 57 57 56 56 55 55 55 56 56 56 56 56 55 55 55 55 54 54 54 55 55 55 55 56 56 55 55 56 57 57 57 57 56 55 54 53 53 53 53 52 52 52 52 51 50 49 47 45 45 44 44 44 45 46 46 46 47 47 47 47 47 47 47 47 47 47 47 47 47 47 47 47 47 48 48 48 49 49 50 49 49 49 49 49 49 49 48 48 47 48 48 48 48 49
Wind_Direction
288 288 288 289 290 290 290 291 291 291 291 291 291 291 291 291 290 290 290 290 290 290 290 290 290 290 289 289 289 289 289 290 291 292 292 293 292 292 291 290 289 288 288 287 287 286 285 285 284 283 282 281 280 280 280 280 280 280 281 281 281 282 282 282 283 283 284 284 285 286 286 286 287 287 287 287 287 286 285 284 283 283 282 283 284 285 286 287 288 289 289 290 291 292 293 295 297 299 300 301 302 304 306
288 288 289 289 289 290 290 290 291 291 291 291 291 291 291 291 291 291 291 291 291 291 291 291 291 291 291 291 291 290 290 291 291 292 292 293 293 292 292 291 290 289 288 288 287 287 286 286 285 284 283 283 282 281 281 281 281 281 282 282 283 283 284 284 285 285 286 286 287 287 287 287 287 288 287 287 287 286 285 284 283 282 282 282 283 284 285 286 287 288 289 290 291 292 294 296 297 299 300 301 302 304 306
289 289 289 289 289 289 290 290 290 290 290 290 290 291 291 291 291 291 291 291 291 291 292 292 292 292 292 292 292 292 292 292 292 292 293 293 293 293 292 291 291 290 289 289 288 288 288 287 287 286 286 285 284 284 284 283 283 284 284 284 285 285 286 286 287 287 287 288 288 288 288 288 288 287 287 287 286 285 284 283 282 281 281 282 283 284 285 286 287 288 289 290 291 293 294 296 298 299 300 301 302 304 305
289 289 289 289 290 289 290 290 290 290 290 290 290 290 290 290 291 291 291 291 291 291 292 292 292 293 293 293 293 294 294 294 294 294 294 294 294 294 293 293 292 291 290 290 289 289 289 289 289 289 289 288 288 287 287 286 286 286 286 286 286 286 286 287 287 287 287 288 288 288 288 288 288 287 287 286 285 284 284 282 282 281 281 281 282 283 284 286 287 288 290 291 292 294 295 297 298 299 300 301 302 303 304
290 290 290 290 290 290 290 290 290 290 290 290 290 290 290 290 290 290 290 291 291 291 291 291 291 292 292 293 293 293 294 294 294 294 294 295 295 294 294 293 293 292 291 291 290 290 290 290 290 290 290 290 290 289 289 288 288 287 287 286 286 286 286 286 286 287 287 287 287 287 288 287 287 287 286 286 285 284 283 282 281 281 280 281 282 283 284 286 288 289 291 292 293 294 296 297 299 300 301 302 302 303 303
290 290 290 290 290 290 290 290 290 290 290 290 290 290 289 289 289 289 289 289 289 290 289 290 290 290 290 291 291 292 292 292 293 293 293 293 294 294 294 293 293 292 292 291 291 290 290 290 290 289 289 289 289 289 289 289 288 288 287 287 286 286 286 286 286 286 287 287 287 287 287 286 286 286 285 285 284 284 283 282 281 281 281 282 282 284 285 286 288 289 291 292 293 295 296 297 298 299 301 302 302 303 303
290 290 290 290 290 290 290 290 290 290 290 290 290 289 289 289 289 288 288 288 288 288 288 288 288 288 288 289 289 289 290 290 290 290 291 291 291 291 291 291 291 291 290 290 289 289 288 288 288 288 288 288 288 288 288 288 287 287 287 287 286 286 286 286 287 287 287 286 286 286 286 285 285 285 285 284 284 283 283 282 282 282 282 283 284 285 286 287 288 289 290 292 293 294 295 296 297 298 300 301 301 302 302
290 290 289 289 289 289 290 290 290 290 290 290 289 289 289 288 288 288 288 288 287 287 287 287 287 287 287 286 287 287 287 287 287 287 288 288 288 288 288 289 289 288 288 287 287 286 286 285 285 285 285 285 285 286 286 286 286 286 286 286 286 286 286 286 286 286 286 286 286 286 285 285 285 284 284 284 283 283 283 282 283 283 283 284 284 285 286 287 288 289 290 291 293 294 295 296 297 298 299 299 300 301 302
289 289 289 289 289 289 289 289 289 289 289 289 289 289 289 288 288 288 288 288 287 287 287 287 286 286 286 286 285 285 285 285 285 285 285 285 285 286 286 286 286 286 286 285 285 284 283 283 283 283 283 283 283 283 283 283 284 284 284 284 284 285 285 285 285 285 285 285 285 285 284 284 284 284 283 283 283 283 283 283 283 283 283 284 285 285 286 287 288 289 290 291 293 294 295 296 297 298 298 299 300 300 301
289 289 289 289 289 289 288 289 288 289 289 289 289 289 288 288 288 288 288 288 288 287 287 287 286 286 286 286 285 285 285 284 284 284 284 284 284 284 285 285 285 285 285 284 284 283 283 282 282 282 281 281 281 281 281 282 282 282 283 283 283 284 284 284 284 284 284 284 283 283 283 283 283 283 283 282 282 282 282 283 283 283 284 284 285 286 287 288 289 290 291 292 293 294 295 296 297 298 298 299 299 300 301
288 288 288 288 288 288 288 288 288 288 288 288 289 289 289 289 289 289 289 288 288 288 287 287 287 287 287 286 286 286 285 285 285 284 284 284 284 284 284 284 285 285 285 285 285 285 284 284 283 282 282 281 281 281 281 281 282 282 282 283 283 283 284 284 284 284 284 284 283 283 283 283 283 283 283 283 283 283 283 283 283 284 284 285 286 287 288 289 290 291 292 293 294 295 296 297 297 298 298 299 299 300 301
288 288 288 288 288 288 288 288 288 288 289 289 289 289 289 289 289 289 289 289 288 288 287 287 287 287 287 287 287 286 286 286 286 285 285 284 284 284 284 285 285 286 286 286 287 287 286 286 285 285 284 284 283 283 283 283 283 283 283 283 283 284 284 284 284 285 284 284 284 284 284 284 284 284 284 284 284 284 284 285 285 286 286 287 288 289 289 290 291 292 293 294 295 296 296 297 297 298 298 299 299 300 301
287 287 287 287 287 287 287 288 288 288 288 289 289 289 289 289 289 289 289 289 288 288 288 287 287 287 287 287 287 287 287 287 287 286 286 285 285 285 285 285 285 286 287 287 288 288 288 288 287 287 287 286 286 285 285 285 284 284 284 284 285 285 285 285 285 285 285 286 286 286 286 286 286 286 286 286 286 286 287 287 287 288 288 289 290 290 291 292 293 294 294 295 296 296 297 297 297 298 298 299 300 300 300
287 287 287 287 287 287 287 287 287 287 288 288 289 289 289 289 289 289 289 288 288 288 287 287 287 286 286 287 287 287 287 287 287 287 287 286 285 285 285 285 285 286 287 287 288 288 288 288 288 288 288 288 288 287 287 287 286 286 286 286 286 286 286 286 286 286 287 287 287 287 288 288 288 288 288 288 288 289 289 289 289 290 290 291 291 292 293 293 294 295 295 296 296 297 297 297 298 298 299 299 300 300 301
287 286 286 286 286 286 286 286 286 287 287 287 288 288 288 288 288 288 288 288 287 287 286 286 285 285 285 286 286 286 287 287 287 287 287 286 286 285 285 285 285 285 286 286 287 287 288 288 288 288 288 288 288 289 289 288 288 288 288 288 288 288 288 288 288 288 288 288 289 289 289 289 289 289 289 290 290 290 290 291 291 291 292 292 293 293 294 294 295 296 296 296 297 297 297 298 298 299 299 300 300 300 300
287 286 286 285 285 285 285 285 286 286 286 286 286 287 287 287 287 287 287 286 286 285 285 284 284 284 284 284 285 285 286 286 287 287 287 286 286 285 285 285 285 285 285 286 286 286 287 287 287 288 288 288 288 289 289 289 289 289 289 289 289 289 289 289 289 289 290 290 290 290 290 290 290 291 291 291 291 291 292 292 292 293 293 293 294 294 294 295 295 296 296 296 297 297 297 298 298 299 299 300 300 300 300
287 286 285 285 284 284 284 285 285 285 285 285 285 285 285 286 286 285 285 285 284 284 283 283 283 282 282 283 283 284 284 285 286 286 286 286 285 285 285 284 284 284 284 285 285 285 286 286 287 287 288 288 288 289 289 290 290 290 290 290 290 290 290 290 290 291 291 291 291 291 291 291 292 292 292 292 292 292 292 293 293 293 294 294 294 294 294 295 295 295 296 296 296 297 297 298 298 299 299 300 300 300 300
286 286 285 284 284 283 283 284 284 284 284 284 284 284 285 284 284 284 283 283 283 282 282 282 281 281 281 281 282 282 283 284 284 284 285 285 284 284 284 283 283 283 284 284 284 285 285 286 286 287 287 288 288 289 289 289 290 290 290 290 290 290 291 291 291 291 291 292 292 292 292 292 292 293 293 292 293 293 293 293 293 293 294 294 294 294 294 295 295 295 296 296 296 297 297 298 298 299 299 299 299 299 299
285 285 284 284 284 283 283 283 283 284 284 284 284 284 284 284 283 283 282 282 281 281 281 281 280 280 280 280 280 281 281 282 283 283 283 283 283 283 283 283 283 283 283 283 284 284 285 286 286 287 287 288 288 289 289 289 289 290 290 290 290 290 290 291 291 291 292 292 292 292 292 293 293 293 293 293 293 293 293 293 293 293 293 294 294 294 295 295 295 296 296 296 297 297 297 298 298 299 299 299 299 299 299
284 284 284 284 283 283 283 283 283 283 283 284 284 284 284 283 283 282 282 281 281 280 280 280 280 279 279 279 279 279 280 280 281 281 282 282 282 282 282 282 282 282 282 283 283 284 284 285 285 286 286 287 288 288 289 289 289 289 289 289 289 289 290 290 290 290 291 291 291 291 292 292 292 292 292 293 293 293 293 293 293 293 293 294 294 295 295 296 296 296 297 297 297 298 298 298 298 299 299 299 299 299 298
284 284 284 284 284 284 284 283 283 283 283 284 284 284 284 283 283 282 282 281 280 280 280 279 279 279 279 278 278 278 278 278 279 279 280 280 281 281 281 281 281 281 281 282 282 283 284 284 285 285 286 286 287 287 288 288 288 288 289 289 288 289 288 289 289 289 290 290 290 291 291 291 291 291 292 292 292 292 292 293 293 293 294 294 295 295 296 296 297 297 298 298 298 298 298 299 299 299 299 299 299 299 298
284 285 285 285 285 284 284 284 284 284 284 284 284 284 283 283 283 283 282 281 281 280 279 279 279 279 278 278 277 277 277 277 277 277 278 278 279 279 280 280 280 280 281 281 282 282 283 284 284 284 285 285 285 286 286 287 287 288 288 288 288 288 288 288 288 288 289 289 289 290 290 290 290 291 291 291 292 292 292 292 293 293 294 294 295 296 296 297 298 298 298 299 299 299 299 299 299 299 299 299 299 299 299
284 285 285 285 285 285 284 284 284 285 285 284 284 284 284 283 283 283 282 282 281 280 279 279 278 278 278 278 277 277 276 276 275 275 275 276 277 277 278 279 280 280 281 281 282 282 283 283 283 284 284 284 284 285 285 286 286 287 287 287 287 287 287 287 288 288 288 288 289 289 289 289 290 290 290 291 291 291 291 292 292 293 294 294 295 296 296 297 298 298 299 299 299 299 299 300 300 300 300 300 300 300 300
284 285 286 286 286 285 285 285 286 286 286 285 284 284 284 284 283 283 282 282 281 280 280 279 278 278 277 277 277 277 276 275 275 274 274 274 275 275 276 277 278 279 280 281 282 282 283 283 283 284 283 283 284 284 284 285 285 286 286 286 287 287 287 288 288 288 288 288 289 289 289 289 289 290 290 290 290 291 291 292 292 293 293 294 295 295 296 297 297 298 298 298 299 299 299 299 300 300 300 300 300 300 300
284 285 286 286 286 286 286 286 287 287 286 285 285 284 284 283 283 283 283 282 282 281 280 279 278 277 277 277 277 277 276 275 275 274 274 273 273 274 275 276 277 278 279 280 281 282 283 283 284 284 284 284 283 283 284 284 284 285 285 286 286 287 287 287 288 288 288 289 289 289 289 289 289 289 289 290 290 290 291 291 292 292 293 293 294 295 295 296 296 297 297 297 298 298 299 299 299 300 300 300 300 300 300
284 285 286 286 286 287 287 287 287 287 286 286 285 284 284 283 283 282 282 282 282 281 280 279 278 278 277 277 277 277 276 276 275 274 274 273 273 273 274 274 275 277 278 279 280 281 282 283 283 284 284 283 283 283 283 283 284 284 284 285 285 286 286 287 287 287 288 288 288 288 288 288 288 289 289 289 289 290 290 290 291 292 292 293 293 294 294 295 295 295 296 296 297 297 298 298 298 299 299 299 299 299 299
284 285 285 286 286 287 287 287 287 287 286 285 285 284 284 283 283 282 282 282 281 281 280 280 279 278 278 277 277 277 277 276 276 275 274 274 274 274 274 274 275 276 277 278 279 280 281 282 282 283 283 283 283 283 283 283 283 283 283 283 284 284 285 285 285 286 286 286 286 287 287 287 287 288 288 288 288 289 289 290 290 291 291 292 293 293 294 294 295 295 295 296 296 296 297 297 297 297 297 297 298 298 298
284 285 285 285 285 286 286 287 287 287 286 285 284 284 284 283 283 282 282 281 281 281 280 280 280 279 278 278 277 277 277 277 276 276 275 275 275 275 275 276 276 276 277 278 278 279 280 281 281 282 282 282 282 282 282 282 282 282 282 282 283 283 283 284 284 284 284 285 285 285 286 286 286 286 287 287 288 288 289 289 290 291 291 292 292 293 294 294 295 295 296 296 296 296 296 296 296 296 296 296 296 296 296
284 284 285 285 285 285 285 285 286 286 285 285 284 284 283 282 282 282 281 281 281 280 280 280 280 280 279 279 278 278 277 277 277 277 277 277 277 277 277 277 277 277 277 277 278 278 279 279 280 280 280 280 281 281 281 281 281 281 281 282 282 282 282 283 283 283 283 284 284 284 285 285 286 286 286 287 288 288 289 290 290 291 292 293 293 294 295 295 296 296 296 297 297 297 297 296 296 296 295 295 295 294 294
283 284 284 284 284 284 285 285 285 285 285 284 284 283 282 282 281 281 281 280 280 280 280 280 280 280 280 279 279 278 278 278 278 278 278 278 278 278 278 278 278 277 277 277 277 278 278 278 279 279 279 279 280 280 280 280 280 281 281 281 281 282 282 282 283 283 283 284 284 284 285 285 286 286 287 287 288 288 289 290 291 292 293 293 294 295 296 296 297 297 298 298 298 298 298 297 297 296 296 295 295 294 294
281 282 283 283 284 284 284 284 284 284 284 284 283 283 282 281 280 280 280 279 279 279 279 279 280 280 280 279 279 279 279 278 278 278 278 278 278 278 278 278 278 278 277 277 277 277 278 278 278 278 279 279 279 279 280 280 280 281 281 281 282 282 282 283 283 283 284 284 284 284 285 285 286 286 287 287 288 289 290 291 291 293 293 295 295 296 297 298 298 299 300 300 300 300 300 299 298 298 297 296 296 295 294
280 280 281 281 282 283 283 284 284 284 283 283 283 282 281 281 280 279 279 278 278 278 279 279 279 279 279 279 279 279 279 279 279 279 279 279 279 278 278 278 278 278 278 278 277 277 278 278 278 278 279 279 279 279 280 280 281 281 281 282 282 282 283 283 283 284 284 284 284 284 285 285 286 286 287 288 288 289 290 291 292 293 294 295 297 298 298 299 300 301 301 302 302 302 301 301 300 300 299 298 297 296 295
278 279 279 280 281 281 282 282 283 283 282 282 282 282 281 280 279 279 278 278 278 278 278 278 278 279 279 279 279 279 279 279 279 279 279 279 278 278 278 278 278 278 278 278 278 278 278 278 278 278 279 279 279 279 280 280 281 281 282 282 283 283 283 283 283 284 284 284 284 284 285 285 286 286 287 288 288 289 290 291 293 294 295 296 298 299 300 301 301 302 303 303 303 304 303 303 302 302 301 300 298 297 296
278 277 278 278 279 280 280 281 281 281 281 281 281 280 280 280 279 279 278 278 277 277 277 277 278 278 278 278 279 279 278 279 279 279 278 278 278 278 278 277 277 278 278 278 278 278 278 278 278 278 279 279 279 280 280 281 281 282 282 283 283 283 284 284 284 284 284 284 284 284 285 285 285 286 287 288 288 289 291 292 293 295 296 297 299 300 301 302 302 303 304 305 305 305 305 304 304 303 302 301 300 299 298
277 277 276 277 277 278 279 279 280 280 280 280 280 279 279 279 279 279 278 278 278 277 277 277 277 277 278 278 278 278 278 279 278 278 278 278 278 278 278 277 278 278 278 278 278 278 278 278 278 278 279 279 279 280 280 281 282 282 283 283 283 284 284 284 284 284 284 284 284 284 285 285 286 286 287 287 288 290 291 292 294 295 297 298 299 300 301 302 303 304 305 305 306 306 306 305 305 304 303 302 301 301 300
277 276 276 276 276 277 277 278 278 279 279 279 279 278 278 278 278 278 278 278 278 278 277 277 277 277 277 277 277 278 278 278 278 278 278 278 278 277 277 278 278 278 278 278 278 278 278 278 278 279 279 279 280 280 281 281 282 282 283 283 284 284 284 284 284 285 285 285 285 285 285 285 286 286 287 288 289 290 291 293 294 295 297 298 299 300 301 302 303 303 304 305 305 306 306 306 305 305 304 303 302 302 301
277 276 276 275 275 276 276 277 277 277 278 277 277 277 277 277 278 278 278 279 278 278 278 277 277 276 276 276 276 277 278 278 278 278 278 277 277 277 277 278 278 278 278 278 278 278 278 278 279 279 279 280 280 281 281 282 282 282 283 283 284 284 284 285 285 285 285 285 285 285 285 285 286 286 287 288 289 290 291 293 294 295 296 298 299 299 300 301 302 302 303 304 305 305 305 305 305 305 304 304 303 302 302
278 277 276 276 275 275 275 276 276 276 276 276 276 276 276 276 277 277 278 278 278 278 278 278 277 276 275 275 275 276 277 277 278 278 278 278 277 277 277 277 278 278 277 277 277 278 278 278 279 279 280 280 281 281 281 282 282 283 283 283 284 284 284 284 285 285 285 285 285 285 285 286 286 287 287 288 289 290 291 292 293 294 296 297 298 298 299 300 300 301 302 303 303 304 304 304 304 304 304 303 303 302 302
278 277 277 276 275 275 275 274 275 275 275 275 275 275 275 276 276 277 277 278 278 279 279 278 277 276 275 275 275 275 276 276 277 277 278 278 278 277 278 278 278 277 277 277 277 277 278 279 279 279 280 280 281 281 282 282 283 283 283 283 284 284 284 284 284 285 285 285 285 285 285 286 286 287 287 288 289 290 291 291 293 294 294 295 296 297 297 298 299 300 300 301 302 302 303 303 303 303 302 302 302 302 301
278 277 277 276 276 275 274 274 274 274 274 274 274 275 275 275 276 276 277 277 278 278 278 278 278 277 275 274 274 274 274 275 276 277 277 277 278 278 278 278 278 277 277 277 277 277 278 278 279 279 280 280 280 281 281 282 282 283 283 283 283 284 284 284 284 284 284 285 285 285 285 285 286 286 287 288 289 289 290 291 292 292 293 294 295 295 296 296 297 298 299 299 300 301 301 301 301 301 301 301 301 300 300
278 277 277 276 276 275 274 274 274 273 273 274 274 274 275 275 275 276 276 276 277 277 278 278 277 277 276 274 274 273 273 274 275 276 276 277 278 278 278 278 278 277 277 277 277 277 278 278 278 279 279 279 280 280 281 282 282 282 282 283 283 283 283 283 284 284 284 284 285 285 285 285 286 286 287 287 288 289 289 290 291 291 292 293 293 294 294 295 295 296 297 297 298 299 299 299 300 300 299 299 299 299 299
277 277 276 276 275 275 274 274 274 274 274 274 274 274 275 275 275 275 276 276 276 276 277 277 277 276 275 275 274 273 273 273 274 275 276 277 277 278 278 278 278 277 277 276 276 277 277 278 278 278 278 279 279 280 280 281 281 282 282 282 282 283 283 283 283 283 284 284 284 285 285 285 285 286 286 287 288 288 289 289 290 290 291 291 292 292 293 293 294 294 295 296 296 297 297 298 298 298 298 298 298 297 297
276 276 275 275 275 274 274 274 274 274 274 274 274 275 275 275 275 275 275 275 275 275 275 276 276 275 275 274 274 273 273 273 274 274 275 276 277 278 278 278 278 277 276 276 276 276 277 277 277 278 278 278 278 279 279 280 281 281 281 282 282 282 282 282 283 283 283 284 284 284 285 285 285 286 286 287 287 288 288 288 289 289 290 290 290 291 291 292 292 292 293 294 294 295 295 296 296 297 297 296 296 296 296
276 275 275 274 274 274 274 274 274 274 274 275 275 275 275 275 275 274 274 274 274 274 274 274 274 274 274 274 274 274 273 273 273 274 275 275 276 277 277 277 277 277 276 276 276 276 276 276 277 277 277 277 278 278 279 279 280 280 281 281 281 282 282 282 282 283 283 283 284 284 284 284 285 285 286 286 286 287 287 287 288 288 288 288 289 289 290 290 290 291 291 292 292 293 294 294 295 295 295 295 295 295 295
276 275 275 274 274 274 274 274 274 274 274 275 275 275 275 274 274 274 273 273 273 273 273 273 273 273 273 273 274 274 274 273 273 274 274 275 275 276 276 277 277 277 276 276 276 275 275 276 276 276 277 277 277 277 278 278 279 279 280 280 281 281 281 282 282 282 283 283 283 283 284 284 284 285 285 285 285 286 286 286 286 287 287 287 287 288 288 289 289 289 290 291 291 292 292 293 293 294 294 294 294 294 294
276 275 275 275 274 274 274 274 274 274 275 275 275 275 274 274 273 273 272 272 271 271 271 271 272 272 272 273 273 274 274 273 273 273 274 274 274 275 275 276 276 276 276 276 276 275 275 275 275 276 276 276 277 277 277 277 278 278 279 280 280 280 281 281 281 282 282 282 282 283 283 283 284 284 284 284 284 285 285 285 285 286 286 286 286 287 287 287 288 288 289 289 290 290 291 291 292 292 293 293 294 294 294
276 276 276 275 275 275 275 275 274 275 275 275 274 274 273 273 272 271 271 270 270 270 270 270 270 271 272 272 272 273 273 273 273 273 273 273 273 274 275 275 275 276 276 276 276 275 275 275 275 275 276 276 276 276 276 277 277 277 278 279 279 280 280 280 281 281 281 281 282 282 283 283 283 283 283 283 283 284 284 284 284 284 285 285 285 285 286 286 286 287 287 288 288 289 289 290 290 291 292 292 293 293 293
277 276 276 276 276 275 275 275 274 274 274 274 274 273 272 272 271 270 269 269 269 269 269 269 269 270 271 271 271 272 272 272 272 272 272 273 273 273 274 275 275 275 275 275 275 275 275 275 275 275 275 276 276 276 276 276 277 277 277 278 278 279 279 280 280 280 280 280 281 281 282 282 283 283 283 283 283 283 283 283 283 283 284 284 284 284 285 285 285 286 286 287 287 288 288 289 289 290 290 291 291 292 292
277 277 276 276 276 275 275 275 274 274 273 273 273 272 271 271 270 269 269 268 268 268 268 268 268 269 270 270 271 271 271 271 272 272 272 272 272 273 273 274 274 274 275 275 275 276 276 275 275 275 275 275 276 276 276 276 276 276 277 277 278 278 278 278 278 278 279 279 279 280 281 282 282 282 282 282 282 282 282 282 283 283 283 283 283 283 284 284 284 285 285 286 286 287 287 288 288 289 289 290 290 291 291
277 276 276 276 275 275 275 274 273 273 272 272 272 271 271 270 269 269 268 268 267 267 267 267 268 268 269 269 270 270 270 271 271 271 272 272 272 272 272 272 273 274 274 275 276 276 276 276 276 276 276 275 275 276 276 276 276 277 277 277 278 278 278 278 277 277 277 278 278 279 280 281 281 281 282 282 281 282 282 282 282 282 282 282 282 283 283 283 283 284 284 285 285 286 286 287 287 287 288 288 289 289 289
277 276 276 275 275 274 274 273 273 272 272 271 271 271 270 270 269 269 268 268 267 267 267 267 267 268 268 268 269 269 270 270 271 271 272 271 271 271 272 272 272 273 274 275 275 276 277 277 277 277 276 276 276 276 276 276 276 277 277 277 277 278 277 277 277 276 276 276 277 278 279 280 280 280 281 281 281 281 281 281 281 281 281 282 282 282 282 282 283 283 284 284 284 285 285 286 286 286 287 287 287 288 288
276 276 275 275 274 274 273 273 272 272 271 271 270 270 270 270 269 269 268 268 267 267 267 267 267 267 267 268 268 269 269 270 271 271 271 271 271 270 271 271 272 273 274 274 275 275 276 277 278 277 277 277 276 276 276 276 277 277 278 278 278 278 277 277 276 276 276 276 276 277 278 278 279 280 280 280 280 280 280 280 280 281 281 281 281 281 282 282 282 282 283 283 284 284 284 285 285 285 285 286 286 286 287
275 275 274 274 273 273 272 272 272 271 271 270 270 270 270 270 269 269 269 268 268 267 267 266 267 267 267 267 268 268 269 269 270 270 270 270 270 270 270 271 272 273 273 274 274 275 276 277 278 277 277 277 277 277 277 277 277 278 278 278 278 278 278 277 277 276 276 275 276 276 277 277 278 279 279 279 279 280 280 280 280 280 280 280 281 281 281 281 282 282 282 283 283 283 284 284 284 284 285 285 285 285 286
274 274 274 274 273 273 273 272 272 271 271 270 269 269 269 269 269 269 269 268 268 267 267 266 266 267 267 267 268 268 268 269 269 270 270 270 270 270 270 271 271 272 272 273 274 275 276 276 277 277 276 277 277 277 277 277 278 278 279 279 279 278 278 278 278 277 276 276 276 276 276 277 277 278 278 279 279 279 279 279 279 279 279 279 280 280 280 281 281 281 282 282 283 283 283 283 284 284 284 284 285 285 285
274 274 274 274 274 274 274 273 272 272 271 270 270 269 269 269 269 269 269 268 268 267 267 266 266 266 266 267 267 267 268 268 268 269 269 270 270 270 271 271 270 271 271 272 274 275 275 275 275 276 276 277 277 277 277 277 278 278 279 279 279 279 279 279 278 278 277 277 276 276 276 277 277 277 278 278 278 278 278 278 278 279 279 279 279 279 280 280 280 281 281 282 282 282 283 283 283 283 283 284 284 285 285
275 275 275 275 275 275 274 274 273 273 272 272 271 270 269 269 269 269 269 268 268 267 267 266 266 266 266 266 267 267 267 267 268 268 269 270 270 270 270 270 271 271 272 272 273 273 274 273 274 275 276 276 277 277 277 277 277 278 279 279 279 279 279 279 279 278 278 277 277 277 276 277 277 277 277 277 277 278 278 278 278 278 278 278 278 279 279 279 280 280 281 281 281 282 282 282 282 282 283 283 284 284 284
276 276 275 275 275 275 275 275 274 274 274 273 272 271 270 269 269 269 269 268 268 267 267 266 266 265 265 265 266 267 267 267 268 268 269 270 270 270 270 270 270 271 272 272 272 272 272 273 274 275 275 276 276 277 277 277 277 278 278 279 279 279 280 279 279 279 278 278 277 277 277 277 277 277 277 277 277 277 277 278 278 278 278 278 278 279 279 279 279 280 280 281 281 281 281 281 281 281 282 282 283 283 284
276 276 275 275 275 275 275 275 275 275 274 274 274 273 272 270 269 269 269 268 268 268 267 267 266 266 265 265 265 266 267 267 268 268 269 269 270 270 270 270 270 270 271 271 272 272 272 273 273 274 275 275 275 276 277 278 278 278 278 278 279 279 280 279 279 279 278 278 278 277 277 277 277 277 277 277 277 277 277 277 278 278 278 278 278 279 279 279 279 279 280 280 280 281 281 280 280 280 281 281 282 283 283
276 275 275 275 275 275 275 275 275 275 274 274 274 274 273 272 270 269 269 268 268 268 267 267 266 266 266 265 265 265 266 266 267 267 268 268 269 270 270 270 270 270 270 271 271 272 273 273 274 274 274 275 275 275 276 277 277 278 278 278 278 279 279 279 279 278 278 278 278 277 277 277 277 277 277 277 277 277 277 277 277 278 278 278 278 279 279 279 279 279 279 280 280 280 280 280 280 280 280 281 282 282 283
275 275 275 275 275 275 274 274 274 274 274 274 274 274 273 273 271 270 269 269 268 268 268 267 267 267 266 266 266 266 266 266 266 267 267 268 269 269 270 270 270 270 271 271 272 272 273 273 274 275 275 275 276 276 276 276 276 277 277 277 278 278 278 278 278 278 278 278 278 277 277 277 277 277 277 277 276 276 277 277 277 278 278 278 278 278 279 279 279 279 279 279 279 279 279 279 279 280 280 281 281 282 282
275 275 274 274 274 274 274 274 274 274 274 274 274 274 274 273 272 271 271 270 269 268 268 268 267 267 267 266 266 266 267 267 267 267 267 267 268 269 270 271 271 271 271 271 272 272 273 274 274 275 276 276 276 276 276 276 276 276 276 277 277 278 278 278 278 278 278 278 278 277 277 277 277 276 276 276 276 276 276 277 277 278 278 278 278 278 278 278 278 278 279 279 279 279 279 279 279 280 280 281 281 282 282